Weather History for Shirley, NY

Change the Weather History Date:

Tuesday, May 28, 2013

  Actual Average (KISP) Record (KISP)
Temperature  
Mean Temperature 57 °F 62 °F  
Max Temperature 69 °F 71 °F 90 °F (1991)
Min Temperature 46 °F 54 °F 38 °F (1994)
Degree Days  
Heating Degree Days 8 4  
Month to date heating degree days 208  
Since 1 July heating degree days 5379  
Cooling Degree Days 0 2  
Month to date cooling degree days 13  
Year to date cooling degree days 15  
Growing Degree Days 7 (Base 50)    
Moisture  
Dew Point 52 °F    
Average Humidity 85    
Maximum Humidity 96    
Minimum Humidity 45    
Precipitation  
Precipitation 0.40 in 0.14 in 0.45 in (2013)
Month to date precipitation 3.36  
Year to date precipitation 19.04  
Snow  
Snow 0.00 in 0.00 in - ()
Month to date snowfall 0.0  
Since 1 July snowfall 24.8  
Snow Depth -    
Sea Level Pressure  
Sea Level Pressure 30.21 in    
Wind  
Wind Speed 4 mph (South)    
Max Wind Speed 14 mph    
Max Gust Speed 17 mph    
Visibility 7 miles    
Events Rain    
T = Trace of Precipitation, MM = Missing Value Source: NWS Daily Summary

Daily Weather History Graph

Daily Weather History Graph

Search for Another Location

Airport:

Trip Planner

Search our weather history database for the weather conditions in past years. The results will help you decide how hot, cold, wet, or windy it might be!

Date:

Astronomy

May. 28, 2013 Rise Set
Actual Time 5:24 AM EDT 8:13 PM EDT
Civil Twilight 4:51 AM EDT 8:46 PM EDT
Nautical Twilight 4:10 AM EDT 9:27 PM EDT
Astronomical Twilight 3:24 AM EDT 10:14 PM EDT
Moon 11:34 PM EDT (5/28) 9:09 AM EDT (5/28)
Length of Visible Light 15h 54m
Length of Day
14h 49m
Waning Gibbous, 83% of the Moon is Illuminated
May 28
Waning Gibbous
May 31
Last Quarter
Jun 8
New
Jun 16
First Quarter
Jun 23
Full

Hourly Weather History & Observations

Time (EDT) Temp. Dew Point Humidity Pressure Visibility Wind Dir Wind Speed Gust Speed Precip Events Conditions
12:56 AM 55.0 °F 50.0 °F 83% 30.19 in 10.0 mi WSW 3.5 mph - N/A   Clear
1:56 AM 52.0 °F 48.0 °F 86% 30.20 in 10.0 mi West 4.6 mph - N/A   Clear
2:56 AM 48.9 °F 46.0 °F 90% 30.20 in 10.0 mi Calm Calm - N/A   Clear
3:56 AM 48.0 °F 45.0 °F 89% 30.19 in 10.0 mi Calm Calm - N/A   Clear
4:56 AM 46.9 °F 45.0 °F 93% 30.20 in 10.0 mi Calm Calm - N/A   Clear
5:56 AM 48.0 °F 45.0 °F 89% 30.20 in 10.0 mi Calm Calm - N/A   Clear
6:56 AM 48.0 °F 46.9 °F 96% 30.22 in 9.0 mi Calm Calm - N/A   Clear
7:56 AM 57.0 °F 53.1 °F 87% 30.22 in 10.0 mi Calm Calm - N/A   Clear
8:56 AM 64.0 °F 52.0 °F 65% 30.23 in 10.0 mi Calm Calm - N/A   Clear
9:56 AM 68.0 °F 53.1 °F 59% 30.23 in 10.0 mi South 6.9 mph - N/A   Clear
10:56 AM 68.0 °F 46.0 °F 45% 30.24 in 10.0 mi South 6.9 mph - N/A   Clear
11:56 AM 66.9 °F 46.9 °F 49% 30.24 in 10.0 mi SSW 9.2 mph - N/A   Clear
12:56 PM 64.9 °F 46.9 °F 52% 30.24 in 10.0 mi South 9.2 mph - N/A   Clear
1:56 PM 64.0 °F 50.0 °F 60% 30.22 in 10.0 mi SSW 9.2 mph - N/A   Mostly Cloudy
2:56 PM 59.0 °F 51.1 °F 75% 30.23 in 6.0 mi SSW 5.8 mph - 0.01 in Rain Light Rain
3:56 PM 57.9 °F 53.1 °F 84% 30.22 in 6.0 mi Calm Calm - 0.05 in Rain Light Rain
4:24 PM 57.2 °F 53.6 °F 88% 30.22 in 2.5 mi Calm Calm - 0.04 in Rain Rain
4:33 PM 57.2 °F 53.6 °F 88% 30.22 in 3.0 mi Calm Calm - 0.06 in Rain Rain
4:48 PM 57.2 °F 55.4 °F 94% 30.21 in 2.0 mi Calm Calm - 0.10 in Rain Rain
4:56 PM 57.0 °F 55.0 °F 93% 30.22 in 1.8 mi Calm Calm - 0.14 in Rain Heavy Rain
5:14 PM 57.2 °F 55.4 °F 94% 30.22 in 3.0 mi Calm Calm - 0.05 in Rain Light Rain
5:26 PM 57.2 °F 55.4 °F 94% 30.22 in 1.8 mi SSE 4.6 mph - 0.09 in Rain Heavy Rain
5:32 PM 57.2 °F 55.4 °F 94% 30.22 in 2.0 mi SSE 6.9 mph - 0.10 in Rain Rain
5:41 PM 57.2 °F 55.4 °F 94% 30.22 in 3.0 mi SSE 6.9 mph - 0.11 in Rain Light Rain
5:51 PM 57.2 °F 55.4 °F 94% 30.21 in 2.5 mi SE 5.8 mph - 0.12 in Rain Light Rain
5:56 PM 57.0 °F 55.9 °F 96% 30.21 in 3.0 mi SSE 5.8 mph - 0.12 in Rain Light Rain
6:34 PM 57.2 °F 55.4 °F 94% 30.20 in 1.8 mi SE 8.1 mph - 0.01 in Rain Light Rain
6:56 PM 57.9 °F 55.9 °F 93% 30.19 in 1.2 mi SSE 9.2 mph - 0.04 in Rain Light Rain
7:56 PM 57.9 °F 55.9 °F 93% 30.18 in 3.0 mi SE 9.2 mph - 0.03 in Rain Light Rain
8:56 PM 57.0 °F 55.9 °F 96% 30.17 in 5.0 mi SE 6.9 mph - 0.01 in Rain Light Rain
9:30 PM 57.2 °F 55.4 °F 94% 30.17 in 9.0 mi SE 13.8 mph 17.3 mph 0.00 in Rain Light Rain
9:56 PM 57.0 °F 55.9 °F 96% 30.17 in 10.0 mi SSE 13.8 mph - 0.00 in   Overcast
10:43 PM 57.2 °F 55.4 °F 94% 30.17 in 10.0 mi South 9.2 mph - N/A   Overcast
10:56 PM 57.9 °F 55.9 °F 93% 30.17 in 10.0 mi South 9.2 mph - N/A   Overcast
11:56 PM 57.9 °F 55.9 °F 93% 30.16 in 10.0 mi SSE 5.8 mph - 0.00 in Rain Light Rain